Domov               UVHVVR             MKGP            O straneh              
ZDRAVSTVENO VARSTVO RASTLIN
  MREŽA AGROMET. POSTAJ
 ► PROGNOSTIČNA OBVESTILA
AGROMETEOROLOŠKI PODATKI -
ARSO
OBVLADOVANJE TVEGANJ ZARADI
NEUGODNIH VREMENSKIH RAZMER
  ► NARAVNE NESREČE
  ► SUŠA/MOČA
  ► NAMAKANJE
  ► ŽLED (gozdarstvo)
KARTOGRAFSKI PRIKAZI
SPLETNE POVEZAVE
PROJEKTI IN PUBLIKACIJE

AGROMETEOROLOŠKA MREŽA: VREMENSKE POSTAJE IN FENOLOŠKA OPAZOVANJA

Pregled podatkov za lokacijo Gabrovka, meteorološka postaja 38756

Pregled senzorjev na lokaciji

ID Ime Zadnja
vrednost
Datum
zadnje
spremembe
Tip
senzorja
2042 Omočenost lista (U) 0 U 25.2.2018 16:00 A730WET
2045 Padavine (mm) 0 mm 25.2.2018 16:00 Rain-O-Matic
2065 Relativna vlaga 2 m (% RH) 58,78 % RH 25.2.2018 16:00 50YA
2064 Temperatura 2 m (°C) -6,74 °C 25.2.2018 16:00 50YA

Pregled podatkov zadnjih 24 ur

Zap.
št.
Datum in čas Gabrovka
Omočenost
lista
Padavine Relativna
vlaga
2
m
Temperatura
2
m
1 25.2.2018 16:30
2 25.2.2018 16:00 0 0 58,8 -6,7
3 25.2.2018 15:30 0 0 58,4 -6,4
4 25.2.2018 15:00 0 0 58,6 -6,2
5 25.2.2018 14:30 0 0 58,9 -6,1
6 25.2.2018 14:00 0 0 58,9 -5,9
7 25.2.2018 13:30 0 0 59,9 -6,3
8 25.2.2018 13:00 0 0 59,4 -6,1
9 25.2.2018 12:30 0 0 60 -6,3
10 25.2.2018 12:00 0 0 59,4 -6,1
11 25.2.2018 11:30 0 0 60,3 -6,4
12 25.2.2018 11:00 0 0 63,6 -7,7
13 25.2.2018 10:30 0 0 64,7 -8,2
14 25.2.2018 10:00 0 0 64,1 -8,2
15 25.2.2018 09:30 0 0 64 -8,7
16 25.2.2018 09:00 0 0 62,8 -9,5
17 25.2.2018 08:30 0 0 61,7 -9,5
18 25.2.2018 08:00 0 0 62,8 -9,4
19 25.2.2018 07:30 0 0 64,7 -9,5
20 25.2.2018 07:00 0 0 67,6 -9,5
21 25.2.2018 06:30 0 0 71,8 -9,4
22 25.2.2018 06:00 0 0 73,3 -9
23 25.2.2018 05:30 0 0 71,2 -8,6
24 25.2.2018 05:00 0 0 69,3 -8,4
25 25.2.2018 04:30 0 0 68 -8,1
26 25.2.2018 04:00 0 0 65,4 -7,8
27 25.2.2018 03:30 0 0 64,6 -7,6
28 25.2.2018 03:00 0 0 63,2 -7,3
29 25.2.2018 02:30 0 0 62,2 -7
30 25.2.2018 02:00 0 0 63 -6,7
31 25.2.2018 01:30 0 0 62,7 -6,5
32 25.2.2018 01:00 0 0 62,9 -6,4
33 25.2.2018 00:30 0 0 64,3 -6,3
34 25.2.2018 00:00 0 0 67,2 -6
35 24.2.2018 23:30 0 0 74,1 -5,8
36 24.2.2018 23:00 0 0 77 -5,5
37 24.2.2018 22:30 0 0 77,3 -5,3
38 24.2.2018 22:00 0 0 74,5 -5,1
39 24.2.2018 21:30 0 0 74,1 -4,9
40 24.2.2018 21:00 0 0 75,8 -4,8
41 24.2.2018 20:30 0 0 76,9 -4,7
42 24.2.2018 20:00 0 0 79,6 -4,6
43 24.2.2018 19:30 0 0 85,8 -4,8
44 24.2.2018 19:00 0 0 87,4 -4,7
45 24.2.2018 18:30 0 0 87,1 -4,5
46 24.2.2018 18:00 0 0 87,9 -4,3
47 24.2.2018 17:30 0 0 89,9 -4,2
48 24.2.2018 17:00 0 0 90,2 -3,9
© 2011 Ministrstvo za kmetijstvo, gozdarstvo in prehrano. Vse pravice pridržane.